User: anonymous   Login
Location: ??
(34.7252°N, 135.5457°E)
Time: 01:12:27
(UTC+00:00)
Language:

Cosmos 2016 Rocket - Orbit

View from above orbital plane
View from above orbital plane
View from above satellite
View from above satellite

Ground track
Ground track

The orbit data is extracted from the following two-line orbital elements,

1 19922U 89028B   20336.36105383 +.00000094 +00000-0 +79682-4 0  9992
2 19922 082.9603 209.6989 0035662 308.9517 050.8464 13.77226267590847
Epoch (UTC): 01 December 2020 08:39:55
Eccentricity: 0.0035662
inclination: 82.9603°
perigee height: 947 km
apogee height: 1000 km
right ascension of ascending node: 209.6989°
argument of perigee: 308.9517°
revolutions per day: 13.77226267
mean anomaly at epoch: 50.8464°
orbit number at epoch: 59084

The dashed part of the orbit path shows where the satellite is in the earth's shadow,  

DLR